Location: Asheville, NC
(35.6000°N, 82.5500°W)
Time: 19:31:45
(UTC-05:00)

ISS - Pass Details

Date: 10 December 2020
Orbit: 418 x 419 km, 51.6° (Epoch: 17 January)

Event Time Altitude Azimuth Distance (km) Brightness Sun altitude
Rises 18:29:48 0° 300° (WNW) 2,358 0.7 -14.4°
Reaches altitude 10° 18:32:07 10° 287° (WNW) 1,491 -0.1 -14.8°
Maximum altitude 18:34:56 25° 229° (SW) 876 -1.4 -15.4°
Drops below altitude 10° 18:37:44 10° 172° (S) 1,483 -0.9 -15.9°
Sets 18:40:10 0° 158° (SSE) 2,389 0.0 -16.4°
